Voltar ao catálogo

ECHOSTAR 18

AtivoComunicaçõesGEO
NORAD 41592·PAYLOAD·🇺🇸 United States

Lançado Jun 18, 2016 de Guiana Space Centre

Loading…

TLE

AtualizadoSource: Space-Track

Época: Sep 14, 2026, 10:05 UTC

1 41592U 16039B   26257.42042447 -.00000290  00000-0  00000-0 0  9991
2 41592   0.0179 160.8740 0001502   6.3842 276.1354  1.00271536 37516

Acompanhe ECHOSTAR 18 em tempo real com AllMySat

Download on the App Store